Location: Biltmore Gardens
(41.6070°N, 83.4666°W)
Time: 14:29:46
(UTC+00:00)

Geosat - Pass Details

Date: 14 July 2020
Orbit: 763 x 766 km, 108.0° (Epoch: 04 August)

Event Time Altitude Azimuth Distance (km) Brightness Sun altitude
Exits shadow 02:55:59 21° 174° (S) 1,670 5.3 -16.3°
Maximum altitude 02:59:15 56° 247° (WSW) 904 4.4 -16.7°
Drops below altitude 10° 03:04:12 10° 325° (NW) 2,310 7.8 -17.2°
Sets 03:06:32 0° 330° (NNW) 3,241 8.9 -17.5°
